Weather Roundup
Issued by NWS

Home | Current Version | Previous Version | Text Only | Print | Product List | Glossary On
Versions: 1 2 3 4 5 6 7 8 9 10 11 12 13 14 15 16 17 18 19 20 21 22 23 24 25 26 27 28 29 30 31 32 33 34 35 36 37 38 39 40 41 42 43 44 45 46 47 48 49 50
000
NZUS93 KARX 232310
HRRWXR

CURRENT HOURLY OBSERVATIONS ACROSS
MUCH OF THE UPPER MISSISSIPPI VALLEY
NATIONAL WEATHER SERVICE LA CROSSE WI
600 PM CDT WED APR 23 2014


...SOUTHEAST MINNESOTA...


CITY           SKY/WX    TMP DP  RH WIND       PRES   REMARKS
ROCHESTER      CLOUDY    47  29  49 SE17G28   29.94F
ROCHESTER/MAYO CLOUDY    47  27  45 E12G20    29.96R
WINONA         CLOUDY    43  37  81 SE14      30.01F
AUSTIN         DRIZZLE   45  36  70 SE9       29.94F
ALBERT LEA     CLOUDY    45  36  70 SE18      29.91F
DODGE CENTER   LGT RAIN  46  32  57 SE16      29.94R
PRESTON        CLOUDY    47  32  55 SE14G22   29.96S
OWATONNA       CLOUDY    46  34  61 SE15      29.93S
FARIBAULT      CLOUDY    45  34  65 E12       29.93F
$$

...ELSEWHERE IN MINNESOTA...


CITY           SKY/WX    TMP DP  RH WIND       PRES   REMARKS
MINNEAPOLIS    LGT RAIN  41  37  86 E16       29.95F
INTNL FALLS    CLOUDY    54  23  30 SE15G22   29.95S
DULUTH         CLOUDY    44  24  45 E10       30.00S
RED WING       LGT RAIN  43  37  81 E12G20    29.96F
REDWOOD FALLS  CLOUDY    45  35  68 SE21G31   29.82F
MANKATO        CLOUDY    45  36  70 SE20G28   29.89
WORTHINGTON    PTSUNNY   50  34  53 SE30G39   29.77F
FAIRMONT       CLOUDY    45  36  70 SE29      29.83F
$$

...SOUTHWEST WISCONSIN...


CITY           SKY/WX    TMP DP  RH WIND       PRES   REMARKS
LA CROSSE      CLOUDY    46  35  65 E12       30.02F
PRAIRIE DU CHI CLOUDY    52  28  39 E10       29.99F
BOSCOBEL       CLOUDY    54  26  34 E8G18     30.03F
LONE ROCK      CLOUDY    52  27  38 E14       30.05F
PLATTEVILLE    CLOUDY    52  27  37 SE12      30.04F
FORT MC COY    RAIN      43  38  84 E7        30.08F
CAMP DOUGLAS   CLOUDY    52  28  40 S16       30.06S
VIROQUA        CLOUDY    46  33  60 E13       30.02S
WIS DELLS      CLOUDY    51  25  35 S10       30.07S
$$

...ELSEWHERE IN WISCONSIN...


CITY           SKY/WX    TMP DP  RH WIND       PRES   REMARKS
MILWAUKEE      CLOUDY    41  22  46 NE7       30.14F
MADISON        CLOUDY    54  25  32 SE13      30.08F
GREEN BAY      CLOUDY    47  24  40 NE9       30.13F
EAU CLAIRE     CLOUDY    47  34  60 SW12      30.01F
BLACK RVR FLS  LGT RAIN  44  37  76 SW8       30.06R
MEDFORD        CLOUDY    47  24  40 SE9       30.05F
WAUSAU         CLOUDY    49  22  34 SE12      30.06F
WIS RAPIDS     CLOUDY    50  22  33 E12       30.08F
MARSHFIELD     CLOUDY    50  24  36 SE13      30.05F
RICE LAKE      CLOUDY    49  24  36 E10       30.02F
$$

...NORTHEAST IOWA...


CITY           SKY/WX    TMP DP  RH WIND       PRES   REMARKS
WATERLOO       LGT RAIN  45  39  79 SE16G25   29.95F
DUBUQUE        CLOUDY    48  33  56 SE12      30.02F
DECORAH        CLOUDY    48  30  49 SE12G18   29.95F
MASON CITY     CLOUDY    44  38  79 SE21G31   29.91F
CHARLES CITY   CLOUDY    43  37  81 SE17      29.97R
OELWEIN        MIX PCPN N/A N/A N/A SE17      29.97S
$$

...ELSEWHERE IN IOWA...


CITY           SKY/WX    TMP DP  RH WIND       PRES   REMARKS
DES MOINES     CLOUDY    49  39  68 E15G30    29.86F
IOWA CITY      CLOUDY    47  43  86 SE10      30.01S
FORT DODGE     CLOUDY    46  37  71 SE22G31   29.81F
MARSHALLTOWN   CLOUDY    45  40  82 SE18G28   29.91F
CEDAR RAPIDS   LGT RAIN  46  40  79 SE10      29.99R
$$

...NORTHERN ILLINOIS...


CITY           SKY/WX    TMP DP  RH WIND       PRES   REMARKS
CHICAGO-OHARE  CLOUDY    46  20  35 NE6       30.12S
DUPAGE         CLOUDY    49  25  39 NE8       30.11S
CHICAGO-MIDWAY CLOUDY    47  25  42 NE7       30.12F
MOLINE         LGT RAIN  50  39  66 E10       30.01F
ROCKFORD       CLOUDY    54  26  34 E8        30.10F
STERLING       CLOUDY    55  30  38 SE9       30.07S
PEORIA         LGT RAIN  58  36  43 SE6       30.06F
$$

NOTE: "FAIR" INDICATES FEW OR NO CLOUDS BELOW 12,000 FEET WITH NO
SIGNIFICANT WEATHER AND/OR OBSTRUCTIONS TO VISIBILITY. WIND
SPEEDS ARE IN MILES-PER-HOUR.



USA.gov is the U.S. government's official web portal to all federal, state and local government web resources and services.